Погода в Кастильоне-делла-Пеская

Италия     42°45′53″N   10°53′03″E
темп.,
°C
ветер,
м/с
пор.,
м/с
влажн.,
%
обл.,
%
осадки,
мм/ч
давл.,
гПа
погр.,
м
18 апреля, вс
вс1823:00+9ссв696095 0.0 1013265
02:00+8ссв61165100 0.0 1013353
05:00+8св5965100 0.0 1013327
08:00+8св586693 0.0 1013407
11:00+12св435299 0.0 1014916
14:00+14ююз214785 0.0 10131135
17:00+13юз1150100 0.1 1013710
20:00+12св1258100 0.2 1014130
19 апреля, пн
пн1923:00+10св237769 0.1 1015117
02:00+7ссв468386 0.1 1015162
05:00+7ссв4483100 0.0 1015130
08:00+8ссв357717 0.0 1015206
11:00+12св4559100 0.0 1015929
14:00+15сз344697 0.0 10151595
17:00+14зсз555399 0.0 1014687
20:00+12зсз346694 0.0 1014238
20 апреля, вт
вт2023:00+10с236788 0.0 1015148
02:00+8ссв227420 0.0 101574
05:00+8св22735 0.0 101573
08:00+9св22700 0.0 1016104
11:00+12ююз11580 0.0 1017570
14:00+14зюз44611 0.0 1016828
17:00+14юз44580 0.0 1016751
20:00+12з22680 0.0 1017355
21 апреля, ср
ср2123:00+10св11730 0.0 101847
02:00+9всв22793 0.0 101877
05:00+8всв2281100 0.0 101875
08:00+9всв2277100 0.0 1019118
11:00+13ююв2367100 0.0 1019603
14:00+14ю55705 0.0 1019716
17:00+14ююз456612 0.0 1018706
20:00+12ю2372100 0.0 1018353
22 апреля, чт
чт2223:00+11в1175100 0.0 1020106
02:00+11всв2280100 0.0 101967
05:00+10в2286100 0.6 101969
08:00+11всв238188 0.9 1020211
11:00+14юв336287 0.0 1020884
14:00+14ююз547029 0.0 1019507
17:00+14юз326741 0.0 1018522
20:00+12юз22724 0.0 1018124